Location: Unspecified
(0.0000°N, 0.0000°E)
Time: 13:30:45
(UTC+00:00)

Vanguard 3 - Visible Passes

Search period start: 20 July 2019 00:00
Search period end: 30 July 2019 00:00
Orbit: 507 x 3264 km, 33.4° (Epoch: 19 July)

Date Brightness Start Highest point End Pass type
(mag) Time Alt. Az. Time Alt. Az. Time Alt. Az.
20 Jul 10.4 01:31:12 23° NNE 01:31:12 23° NNE 01:37:15 10° NE visible
20 Jul 10.8 03:36:48 10° NW 03:44:18 17° N 03:53:46 10° NNE visible
21 Jul 10.4 02:25:43 19° NNW 02:26:49 19° NNW 02:36:01 10° NNE visible
21 Jul 11.2 04:39:19 10° NNW 04:47:13 15° N 04:56:24 10° NNE visible
22 Jul 10.6 01:15:41 17° NNE 01:15:41 17° NNE 01:19:26 10° NNE visible
22 Jul 10.8 03:22:40 10° NNW 03:28:37 14° N 03:35:50 10° NNE visible
22 Jul 11.4 05:39:39 10° NNW 05:50:34 19° NNE 06:02:35 10° NE visible
23 Jul 10.6 02:10:12 15° NNW 02:11:10 15° N 02:17:44 10° NNE visible
23 Jul 11.2 04:24:20 10° NNW 04:31:29 14° N 04:39:45 10° NE visible
24 Jul 10.8 01:00:11 12° NNE 01:00:11 12° NNE 01:01:28 10° NNE visible
24 Jul 10.9 03:09:01 10° NNW 03:13:01 12° N 03:17:36 10° NNE visible
24 Jul 11.3 05:23:25 10° NNW 05:34:29 19° NNE 05:46:57 10° ENE visible
25 Jul 10.7 01:54:44 11° N 01:55:37 11° N 01:58:42 10° N visible
25 Jul 11.2 04:09:09 10° NNW 04:15:43 14° NNE 04:23:21 10° NE visible
26 Jul 11.3 05:07:06 10° NNW 05:18:16 21° NNE 05:31:16 10° ENE visible
27 Jul 11.2 03:53:42 10° N 03:59:56 13° NNE 04:07:10 10° NE visible
28 Jul 11.2 04:50:44 10° NNW 05:01:58 22° NNE 05:15:27 10° ENE visible
29 Jul 11.2 03:38:01 10° N 03:44:04 13° NNE 03:51:11 10° NE visible
29 Jul 8.2 19:38:49 10° SSW 19:40:04 17° SSW 19:40:04 17° SSW visible
